User: anonymous   Login
Location: Berg
(47.2344°N, 9.5296°E)
Time: 23:16:21
(UTC+00:00)
Language:

AQUARIUS - Orbit

View from above orbital plane
View from above orbital plane
View from above satellite
View from above satellite

Ground track
Ground track

The orbit data is extracted from the following two-line orbital elements,

1 37673U 11024A   21103.02225792  .00000099  00000-0  23149-4 0  9991
2 37673  98.0082 112.5312 0002132  80.0817 302.2156 14.73087557528980
Epoch (UTC): 13 April 2021 00:32:03
Eccentricity: 0.0002132
inclination: 98.0082°
perigee height: 650 km
apogee height: 653 km
right ascension of ascending node: 112.5312°
argument of perigee: 80.0817°
revolutions per day: 14.73087557
mean anomaly at epoch: 302.2156°
orbit number at epoch: 52898

The dashed part of the orbit path shows where the satellite is in the earth's shadow,  

DLR